Terminal Aerodrome Forecast
Issued by NWS

Home | Current Version | Previous Version | Graphics & Text | Print | Product List | Glossary On
Versions: 1 2 3 4 5 6 7 8 9 10 11 12 13 14 15 16
000
FTUS43 KICT 180800 AAA
TAFCNU
TAF AMD
KCNU 180808Z 1808/1906 VRB06KT P6SM VCTS SCT035 BKN060CB
     FM181100 10007KT P6SM SCT060 BKN250
     FM181500 16008KT P6SM SCT250
     FM181800 19012KT P6SM SCT250=

USA.gov is the U.S. government's official web portal to all federal, state and local government web resources and services.